User: anonymous   Login
Location: Unspecified
(0.0000°N, 0.0000°E)
Time: 09:16:26
(UTC+02:00)
Language:

Cosmos 773 Rocket - Orbit

View from above orbital plane
View from above orbital plane
View from above satellite
View from above satellite

Ground track
Ground track

The orbit data is extracted from the following two-line orbital elements,

1 08344U 75094B   18115.60073219 -.00000018  00000-0  27658-5 0  9991
2 08344  74.0558 269.9354 0020914  92.9708 267.3841 14.39117701230627
Epoch (UTC): 25 April 2018 14:25:03
Eccentricity: 0.0020914
inclination: 74.0558°
perigee height: 746 km
apogee height: 776 km
right ascension of ascending node: 269.9354°
argument of perigee: 92.9708°
revolutions per day: 14.39117701
mean anomaly at epoch: 267.3841°
orbit number at epoch: 23062

The dashed part of the orbit path shows where the satellite is in the earth's shadow,  

DLR